Flag for Australia Weather past 2 weeks in Samford, Queensland, Australia

Now
66 °F

Sunny.


Feels Like: 66 °F
Forecast: 51 / 78 °F
Wind: 8 mph from North

Location: Brisbane Airport M. O

Current Time: Aug 2, 2015 at 10:42:37 AM

Latest Report: Aug 2, 2015 at 10:00 AM


Visibility: 10 mi

Pressure: 30.21 "Hg

Humidity: 60%

Dew point: 52 °F

Location of SamfordLocation

Historic Weather in Samford — Graph

°F

Samford temperature yesterday

Maximum temperature yesterday: 70 °F (at 11:00 AM)
Minimum temperature yesterday: 48 °F (at 4:30 AM)
Average temperature yesterday: 59 °F

Past Weeks' High & Low Weather Summary

 TemperatureHumidityPressure
High75 °F (Jul 25, 2:30 PM)100% (Jul 20, 6:00 AM)30.48 "Hg (Jul 20, 6:00 AM)
Low45 °F (Jul 19, 4:30 AM)27% (Jul 31, 12:30 PM)30.04 "Hg (Jul 24, 3:00 PM)
Average60 °F75%30.26 "Hg
* Reported Jul 18 9:00 AM — Aug 2 9:30 AM, Samford, Weather by CustomWeather, © 2015

Note: Actual official high and low records may vary slightly from our data, if they occured in-between our weather recording intervals... More about our weather records

Advertising

Samford weather history for previous 24 hours

 ConditionsComfort  
Time TempWeatherWind HumidityBarometerVisibility
9:30 AM
Sun, Aug 2
64 °FSunny.5 mph68%30.21 "Hg10 mi
9:00 AM61 °FSunny.3 mph77%30.21 "Hg10 mi
8:30 AM57 °FSunny.5 mph88%30.21 "Hg10 mi
8:00 AM55 °FSunny.3 mph88%30.21 "Hg10 mi
7:30 AM52 °FSunny.3 mph94%30.21 "Hg10 mi
7:00 AM50 °FSunny.No wind94%30.18 "Hg10 mi
6:30 AM48 °FFog.3 mph94%30.18 "HgN/A
6:00 AM50 °FFog.3 mph94%30.18 "HgN/A
5:30 AM50 °FSunny.1 mph94%30.18 "Hg10 mi
5:00 AM50 °FClear.5 mph94%30.18 "Hg10 mi
4:30 AM52 °FClear.5 mph94%30.15 "Hg10 mi
4:00 AM52 °FClear.6 mph94%30.15 "Hg10 mi
3:30 AM52 °FClear.5 mph94%30.15 "Hg10 mi
3:00 AM52 °FFog.No wind94%30.15 "Hg6 mi
2:30 AM52 °FFog.No wind100%30.18 "Hg6 mi
2:00 AM52 °FFog.No wind94%30.18 "Hg6 mi
1:00 AM54 °FFog.No wind100%30.18 "Hg6 mi
12:30 AM55 °FClear.No wind94%30.18 "Hg10 mi
12:00 AM55 °FClear.No wind94%30.21 "Hg10 mi
11:30 PM
Sat, Aug 1
55 °FClear.3 mph94%30.21 "Hg10 mi
11:00 PM55 °FClear.5 mph94%30.21 "Hg10 mi
10:30 PM57 °FClear.2 mph88%30.21 "Hg10 mi
10:00 PM57 °FClear.5 mph88%30.21 "Hg10 mi
9:30 PM57 °FClear.5 mph88%30.18 "Hg10 mi
9:00 PM57 °FClear.5 mph88%30.18 "Hg10 mi
8:30 PM59 °FClear.No wind94%30.18 "Hg10 mi
8:00 PM59 °FClear.7 mph94%30.18 "Hg10 mi
7:30 PM59 °FClear.6 mph94%30.18 "Hg10 mi
7:00 PM59 °FClear.7 mph94%30.18 "Hg10 mi
6:30 PM59 °FClear.7 mph88%30.15 "Hg10 mi
6:00 PM61 °FClear.9 mph88%30.15 "Hg10 mi
5:30 PM63 °FClear.10 mph83%30.15 "Hg10 mi
5:00 PM64 °FClear.9 mph78%30.15 "Hg10 mi
4:30 PM66 °FClear.10 mph73%30.15 "Hg10 mi
4:00 PM68 °FSunny.13 mph64%30.15 "Hg10 mi
3:30 PM68 °FSunny.13 mph60%30.15 "Hg10 mi
3:00 PM70 °FSunny.12 mph57%30.15 "Hg10 mi
2:30 PM70 °FSunny.12 mph53%30.15 "Hg10 mi
2:00 PM70 °FSunny.12 mph53%30.15 "Hg10 mi
1:30 PM70 °FSunny.10 mph53%30.15 "Hg10 mi
1:00 PM70 °FSunny.10 mph53%30.15 "Hg10 mi
12:30 PM70 °FSunny.9 mph53%30.18 "Hg10 mi
12:00 PM70 °FSunny.8 mph50%30.18 "Hg10 mi
11:30 AM70 °FPassing clouds.8 mph50%30.21 "HgN/A
11:00 AM70 °FPassing clouds.8 mph50%30.21 "HgN/A
10:30 AM68 °FSunny.3 mph53%30.24 "Hg10 mi
10:00 AM66 °FSunny.6 mph56%30.24 "Hg10 mi
Weather by CustomWeather, © 2015

See weather overviewHow to use our weather pages